STARLINK-2461

operational
NORAD ID: 48428 Int'l Des: 2021-040 Owner: SPXS Country: US Constellation: starlink
LEOCIRCULARSTARLINK_TYPE

Über STARLINK-2461

Beschreibung wird geladen...

Live-Position

3D-Globus wird geladen...

Nächste Überflüge

Höhenverlauf

Altitude vs Time

uPlot chart will show altitude changes over time

Zweizeiliger Elementsatz

1 48428U 21040A 25251.80016664 .00000754 00000-0 69487-4 0 9993
2 48428 53.0544 283.1570 0001326 90.8335 269.2806 15.06400556239149
Epoch: 8. Sept. 2025 • Age: 16 hours

Aktueller Status

Höhe 566.6 km
Geschwindigkeit 7.58 km/s
Subsatellitenpunkt -53.20°S, 39.7°E
Startdatum 9. Mai 2021
Alter 4.3 years
Typ internet

Technische Details

Klassifizierung Payload
Masse 260.00 kg
Trockenmasse 248.00 kg
Gesamtmasse 260.00 kg
Länge 0.20 m
Durchmesser 2.80 m
Spannweite 9.00 m
Form Box + pan
Hersteller SPXS
Bus-Typ Starlink
Phasenstatus In Orbit
Besitzer/Staat SPXS/US

Große Konstellationen

Loading constellations...